Location: Hradec Kralove
(50.2170°N, 15.8330°E)
Time: 01:58:11
(UTC+01:00)

N. Korean satellite - Visible Passes

Search period start: 01 December 2022 00:00
Search period end: 11 December 2022 00:00
Orbit: 421 x 453 km, 97.3° (Epoch: 30 November)

Date Brightness Start Highest point End Pass type
(mag) Time Alt. Az. Time Alt. Az. Time Alt. Az.
01 Dec 8.2 04:52:33 10° NNE 04:55:42 33° E 04:58:49 10° SSE visible
01 Dec 7.7 06:25:28 10° NNW 06:28:03 20° WNW 06:30:35 10° WSW visible
01 Dec 8.8 16:58:51 10° SSW 17:01:48 28° W 17:04:48 10° NW visible
02 Dec 9.8 04:15:04 10° ENE 04:16:38 13° E 04:18:13 10° ESE visible
02 Dec 6.5 05:46:08 10° N 05:49:29 52° WNW 05:52:47 10° SSW visible
03 Dec 7.3 05:07:20 10° NNE 05:10:40 50° E 05:13:58 10° S visible
03 Dec 8.1 06:40:52 10° NNW 06:42:49 14° WNW 06:44:45 10° W visible
03 Dec 9.5 17:14:15 10° SW 17:16:47 19° W 17:19:20 10° NW visible
04 Dec 9.3 04:29:12 10° NE 04:31:38 18° E 04:34:02 10° SE visible
04 Dec 7.0 06:01:07 10° N 06:04:16 35° WNW 06:07:23 10° SW visible
04 Dec 7.3 16:34:25 10° S 16:37:44 54° W 16:41:07 10° NNW visible
05 Dec 6.5 05:22:03 10° NNE 05:25:29 77° ESE 05:28:51 10° S visible
05 Dec 8.5 06:56:46 10° NW 06:57:26 10° WNW 06:58:05 10° WNW visible
05 Dec 9.8 17:29:52 10° WSW 17:31:39 14° W 17:33:28 10° WNW visible
06 Dec 8.6 04:43:32 10° NE 04:46:27 26° E 04:49:19 10° SSE visible
06 Dec 7.4 06:16:04 10° N 06:18:54 24° WNW 06:21:41 10° WSW visible
06 Dec 8.2 16:49:18 10° SSW 16:52:28 36° W 16:55:39 10° NNW visible
07 Dec 6.2 05:36:43 10° N 05:40:06 69° WNW 05:43:28 10° SSW visible
08 Dec 7.9 04:57:53 10° NNE 05:01:05 37° E 05:04:14 10° SSE visible
08 Dec 7.9 06:30:59 10° NNW 06:33:21 18° WNW 06:35:40 10° WSW visible
08 Dec 9.0 17:04:14 10° SSW 17:07:04 25° W 17:09:57 10° NW visible
09 Dec 9.6 04:19:57 10° ENE 04:21:49 14° E 04:23:40 10° ESE visible
09 Dec 6.6 05:51:19 10° N 05:54:35 45° WNW 05:57:48 10° SW visible
10 Dec 7.0 05:12:13 10° NNE 05:15:34 57° E 05:18:51 10° S visible
10 Dec 8.2 06:46:01 10° NNW 06:47:38 13° WNW 06:49:14 10° W visible
10 Dec 9.6 17:19:13 10° SW 17:21:35 17° W 17:23:58 10° NW visible
